Snowfall_Accumulation
0.0 0.0 0.0 0.0 0.0 0.0 0.0 0.0 0.3 0.8 0.0 0.0 0.0 0.0 0.0 0.0 0.0 0.0 0.0 nan nan nan nan nan nan nan nan nan nan nan nan nan nan nan nan nan nan nan
0.0 0.0 0.0 0.0 0.0 0.0 0.0 0.0 0.0 0.2 0.4 0.0 0.0 0.0 0.0 0.0 0.0 0.0 0.0 nan nan nan nan nan nan nan nan nan nan nan nan nan nan nan nan nan nan nan
0.0 0.0 0.0 0.0 0.0 0.0 0.0 0.0 0.0 0.0 0.0 0.0 0.0 0.0 0.0 0.0 0.0 0.0 0.0 0.0 0.0 nan nan nan nan nan nan nan nan nan nan nan nan nan nan nan nan nan
0.0 0.0 0.0 0.0 0.0 0.0 0.0 0.0 0.0 0.0 0.0 0.0 0.0 0.0 0.0 0.0 0.0 0.0 0.0 0.0 0.0 nan nan nan nan nan nan nan nan nan nan nan nan nan nan nan nan nan
0.0 0.0 0.0 0.0 0.0 0.0 0.0 0.0 0.0 0.0 0.0 0.0 0.0 0.0 0.0 0.0 0.0 0.0 0.0 0.0 0.0 nan nan nan nan nan nan nan nan nan nan nan nan nan nan nan nan nan
0.0 0.0 0.0 0.0 0.0 0.0 0.0 0.0 0.0 0.0 0.0 0.0 0.0 0.0 0.0 0.0 0.0 0.0 0.0 0.0 0.0 0.0 nan nan nan nan nan nan nan nan nan nan nan nan nan nan nan nan
0.0 0.0 0.0 nan nan nan 0.0 0.0 0.0 0.0 0.0 0.0 0.0 0.0 0.0 0.0 0.0 0.0 0.3 0.0 0.0 0.0 0.0 0.0 0.0 0.0 0.0 nan nan nan nan nan nan nan nan nan nan nan
0.1 0.0 0.0 0.0 0.0 nan nan nan nan 0.0 0.1 0.3 0.2 0.3 0.0 0.0 0.5 0.3 0.2 0.3 0.8 0.1 0.1 0.2 0.0 0.0 0.0 0.0 nan nan nan nan nan nan nan nan nan nan
0.0 0.0 0.0 0.0 nan 0.0 nan nan nan nan 0.0 0.3 0.5 0.3 1.0 0.0 0.0 0.0 0.0 0.2 0.2 0.0 0.2 0.5 0.3 0.3 0.1 0.0 nan nan nan nan nan nan nan nan nan nan
0.0 0.0 0.0 0.0 0.0 0.0 0.0 0.1 0.0 0.0 0.0 0.0 0.1 0.0 0.0 0.0 0.0 0.1 0.4 0.3 0.3 0.1 0.1 3.3 0.5 0.5 0.3 0.1 nan nan nan nan nan nan nan nan nan nan
0.0 0.0 0.0 0.0 nan nan 0.4 0.7 0.1 0.0 nan nan nan nan nan nan nan 1.4 2.2 3.5 3.3 0.7 0.3 0.9 0.7 0.6 0.4 0.4 0.3 nan nan nan nan nan nan nan nan nan
0.0 0.0 nan 0.0 nan nan 1.4 1.6 1.7 0.2 0.1 0.0 0.0 0.0 nan nan nan 0.2 1.1 3.8 1.6 1.6 0.4 2.0 0.3 0.8 2.1 0.7 0.4 0.4 0.3 nan nan nan nan nan nan 0.1
0.6 0.5 0.3 nan nan nan nan 1.0 2.1 0.2 0.1 0.5 0.4 0.5 0.4 0.3 0.6 0.5 0.3 2.0 2.3 1.1 0.1 1.0 0.9 0.6 1.4 1.2 0.8 0.6 0.6 0.7 0.6 0.6 nan nan nan 0.1
0.7 0.6 0.8 nan nan nan 1.0 nan nan 0.4 3.4 3.2 2.6 1.7 1.6 1.3 0.6 0.6 0.2 0.4 0.4 0.4 0.0 1.6 5.3 1.7 1.7 1.5 1.1 0.7 0.8 1.1 3.4 1.4 1.0 nan nan nan
1.4 1.2 nan nan nan 1.3 nan nan 0.4 3.0 3.7 5.6 3.0 1.7 1.1 0.8 0.3 0.5 0.2 0.3 0.3 0.6 0.3 0.6 1.4 0.4 1.3 1.7 2.4 2.3 3.7 2.2 1.3 1.9 1.9 1.2 0.9 0.6
0.2 1.3 0.4 1.6 0.7 1.0 1.6 2.2 3.2 3.7 4.2 3.9 2.6 1.3 0.9 1.3 1.6 1.0 1.5 1.6 3.1 3.7 0.5 0.5 0.5 0.6 2.1 1.0 0.9 1.3 1.0 3.1 2.2 1.8 1.8 1.9 1.4 1.0
2.7 4.8 2.7 2.0 2.1 1.6 1.9 1.9 1.7 1.7 3.0 3.3 3.3 2.4 1.8 1.5 1.9 1.7 1.5 1.3 2.7 1.8 1.7 1.8 0.4 0.6 1.0 0.8 3.1 0.8 1.3 1.7 1.5 1.9 1.7 1.6 1.1 1.0
3.7 4.6 9.4 10.4 6.1 2.7 3.9 3.2 2.4 2.2 2.2 2.5 4.1 2.8 3.0 3.1 3.1 2.9 2.2 2.5 3.1 2.0 1.5 0.9 1.2 3.5 2.4 2.2 1.4 1.8 5.3 4.0 2.3 1.1 1.6 3.4 1.8 1.5
6.7 4.9 11.6 13.3 7.5 2.8 2.9 2.6 4.0 3.5 1.7 2.5 3.9 5.1 5.3 4.0 5.4 4.2 4.0 3.6 3.5 1.9 1.6 1.7 2.0 2.3 3.9 12.5 2.1 nan 3.2 1.7 2.7 3.2 2.1 3.8 4.3 2.9
2.8 4.8 7.6 7.9 3.9 2.2 2.3 2.8 3.1 5.2 5.4 4.1 6.8 9.6 11.1 8.2 6.6 4.5 4.0 6.3 3.8 1.9 1.1 0.9 1.5 1.9 3.5 6.7 10.5 7.2 nan 4.9 4.2 4.5 3.3 2.7 2.2 nan
2.6 2.8 4.5 3.9 3.7 2.6 9.0 10.5 13.8 12.6 13.0 17.0 9.7 9.5 19.8 5.8 6.5 4.6 4.8 4.2 3.3 1.5 2.1 1.9 1.6 0.0 2.2 5.1 18.8 9.0 8.2 nan 3.2 3.1 2.3 3.9 2.8 1.5
5.0 3.4 3.1 3.4 5.4 5.0 12.1 18.8 16.6 16.0 11.9 8.7 18.0 24.6 22.5 10.8 9.7 8.7 9.7 7.4 3.0 3.3 2.4 1.6 0.9 1.1 3.2 3.2 4.6 11.8 5.5 5.3 nan nan nan nan 5.6 6.2
9.5 4.2 5.7 6.9 6.4 8.1 4.6 10.1 4.4 20.4 8.7 9.2 8.9 9.4 38.2 13.8 7.8 7.6 7.9 5.0 3.2 3.5 2.7 2.7 1.3 1.0 1.7 1.5 3.3 5.0 3.9 7.0 3.7 2.5 6.2 nan nan nan
Water_Equivalent
0.00 0.00 0.00 0.00 0.00 0.00 0.00 0.00 0.08 0.14 0.00 0.00 0.00 0.00 0.00 0.00 0.00 0.00 0.00 nan nan nan nan nan nan nan nan nan nan nan nan nan nan nan nan nan nan nan
0.00 0.00 0.00 0.00 0.00 0.00 0.00 0.00 0.00 0.04 0.06 0.00 0.00 0.00 0.00 0.00 0.00 0.00 0.00 nan nan nan nan nan nan nan nan nan nan nan nan nan nan nan nan nan nan nan
0.00 0.00 0.00 0.00 0.00 0.00 0.00 0.00 0.01 0.00 0.00 0.00 0.00 0.00 0.00 0.00 0.00 0.00 0.00 0.00 0.00 nan nan nan nan nan nan nan nan nan nan nan nan nan nan nan nan nan
0.00 0.00 0.00 0.00 0.00 0.00 0.00 0.00 0.00 0.00 0.00 0.00 0.00 0.00 0.00 0.00 0.00 0.00 0.00 0.00 0.00 nan nan nan nan nan nan nan nan nan nan nan nan nan nan nan nan nan
0.00 0.00 0.00 0.00 0.00 0.00 0.00 0.00 0.00 0.00 0.00 0.00 0.00 0.00 0.00 0.00 0.00 0.00 0.00 0.00 0.00 nan nan nan nan nan nan nan nan nan nan nan nan nan nan nan nan nan
0.00 0.00 0.00 0.00 0.00 0.00 0.00 0.00 0.00 0.00 0.00 0.00 0.00 0.00 0.00 0.00 0.00 0.00 0.00 0.00 0.00 0.00 nan nan nan nan nan nan nan nan nan nan nan nan nan nan nan nan
0.00 0.00 0.00 nan nan nan 0.00 0.00 0.00 0.00 0.00 0.00 0.00 0.00 0.00 0.00 0.00 0.00 0.03 0.00 0.00 0.00 0.00 0.00 0.00 0.00 0.00 nan nan nan nan nan nan nan nan nan nan nan
0.01 0.00 0.00 0.00 0.00 nan nan nan nan 0.00 0.02 0.05 0.03 0.03 0.00 0.00 0.06 0.04 0.03 0.07 0.17 0.03 0.03 0.07 0.00 0.00 0.00 0.00 nan nan nan nan nan nan nan nan nan nan
0.00 0.00 0.00 0.00 nan 0.00 nan nan nan nan 0.00 0.04 0.08 0.04 0.13 0.00 0.00 0.00 0.00 0.02 0.02 0.01 0.06 0.13 0.09 0.08 0.02 0.00 nan nan nan nan nan nan nan nan nan nan
0.00 0.00 0.00 0.00 0.00 0.00 0.00 0.02 0.00 0.00 0.00 0.00 0.02 0.01 0.00 0.00 0.01 0.01 0.05 0.05 0.06 0.02 0.02 0.56 0.15 0.15 0.10 0.04 nan nan nan nan nan nan nan nan nan nan
0.00 0.00 0.00 0.00 nan nan 0.07 0.12 0.02 0.00 nan nan nan nan nan nan nan 0.27 0.45 0.60 0.65 0.18 0.10 0.19 0.19 0.18 0.14 0.14 0.11 nan nan nan nan nan nan nan nan nan
0.01 0.00 nan 0.00 nan nan 0.23 0.24 0.26 0.03 0.01 0.01 0.00 0.00 nan nan nan 0.03 0.19 0.59 0.30 0.28 0.11 0.35 0.07 0.15 0.39 0.18 0.12 0.15 0.13 nan nan nan nan nan nan 0.03
0.15 0.13 0.09 nan nan nan nan 0.17 0.28 0.04 0.03 0.09 0.08 0.13 0.08 0.07 0.13 0.11 0.07 0.38 0.41 0.20 0.02 0.17 0.16 0.11 0.22 0.23 0.20 0.17 0.16 0.22 0.18 0.17 nan nan nan 0.03
0.14 0.15 0.17 nan nan nan 0.25 nan nan 0.09 0.71 0.62 0.48 0.32 0.31 0.27 0.12 0.13 0.04 0.09 0.10 0.07 0.01 0.24 0.81 0.27 0.27 0.27 0.21 0.18 0.21 0.26 0.64 0.36 0.32 nan nan nan
0.33 0.28 nan nan nan 0.42 nan nan 0.12 0.59 0.72 0.95 0.52 0.29 0.20 0.16 0.06 0.10 0.04 0.06 0.06 0.11 0.05 0.12 0.28 0.08 0.26 0.29 0.40 0.41 0.65 0.44 0.31 0.44 0.47 0.31 0.23 0.20
0.05 0.29 0.15 0.39 0.23 0.25 0.37 0.46 0.65 0.73 0.76 0.66 0.42 0.22 0.19 0.28 0.33 0.22 0.32 0.33 0.59 0.67 0.11 0.10 0.09 0.10 0.40 0.21 0.16 0.25 0.20 0.54 0.43 0.38 0.42 0.46 0.34 0.25
0.55 0.87 0.49 0.35 0.37 0.30 0.38 0.37 0.35 0.35 0.55 0.60 0.56 0.41 0.32 0.28 0.37 0.38 0.33 0.26 0.50 0.33 0.31 0.38 0.09 0.13 0.23 0.15 0.58 0.16 0.24 0.31 0.29 0.38 0.37 0.35 0.26 0.26
0.58 0.71 1.33 1.48 0.88 0.43 0.63 0.55 0.44 0.44 0.40 0.47 0.73 0.49 0.50 0.54 0.52 0.54 0.43 0.45 0.53 0.36 0.28 0.19 0.25 0.69 0.49 0.43 0.28 0.33 0.96 0.65 0.41 0.23 0.36 0.63 0.34 0.34
0.98 0.73 1.45 1.75 1.08 0.43 0.44 0.41 0.61 0.60 0.26 0.47 0.67 0.81 0.81 0.63 0.87 0.71 0.71 0.63 0.62 0.35 0.31 0.37 0.41 0.47 0.62 1.79 0.38 nan 0.54 0.31 0.51 0.61 0.45 0.70 0.72 0.52
0.43 0.72 1.04 1.10 0.57 0.33 0.35 0.40 0.47 0.79 0.80 0.65 1.01 1.34 1.50 1.06 0.95 0.66 0.63 0.87 0.61 0.33 0.21 0.18 0.30 0.37 0.58 1.02 1.78 1.22 nan 0.92 0.77 0.79 0.57 0.52 0.40 nan
0.40 0.42 0.70 0.59 0.54 0.40 1.27 1.42 1.79 1.62 1.68 2.16 1.32 1.29 2.84 0.83 0.93 0.71 0.74 0.78 0.68 0.28 0.34 0.33 0.30 0.02 0.37 0.89 3.24 1.51 1.38 nan 0.61 0.58 0.44 0.69 0.47 0.28
0.76 0.51 0.49 0.53 0.81 0.71 1.58 2.50 2.26 2.21 1.56 1.15 2.20 3.28 3.05 1.38 1.13 0.99 1.22 1.04 0.48 0.53 0.36 0.27 0.17 0.19 0.57 0.49 0.69 1.93 0.89 0.89 nan nan nan nan 0.83 0.90
1.37 0.63 0.88 1.05 0.99 1.23 0.68 1.34 0.61 2.94 1.13 1.16 1.11 1.18 5.39 1.56 0.91 0.97 1.05 0.73 0.50 0.53 0.42 0.41 0.23 0.18 0.29 0.24 0.51 0.78 0.58 1.18 0.64 0.42 1.00 nan nan nan
SL_Ratio
nan nan nan nan nan nan nan nan 3.8 5.8 8.3 nan nan nan nan nan nan nan nan nan nan nan nan nan nan nan nan nan nan nan nan nan nan nan nan nan nan nan
nan nan nan nan nan nan nan nan nan 5.6 7.4 nan nan nan nan nan nan nan nan nan nan nan nan nan nan nan nan nan nan nan nan nan nan nan nan nan nan nan
nan nan nan nan nan nan nan nan 6.3 5.7 6.0 nan nan nan nan nan nan nan nan nan nan nan nan nan nan nan nan nan nan nan nan nan nan nan nan nan nan nan
nan nan nan nan nan nan nan nan nan nan nan nan nan nan nan nan nan nan nan nan nan nan nan nan nan nan nan nan nan nan nan nan nan nan nan nan nan nan
nan nan nan nan nan nan nan nan nan nan nan 4.0 nan nan nan nan nan nan nan nan nan nan nan nan nan nan nan nan nan nan nan nan nan nan nan nan nan nan
nan nan nan nan nan nan nan nan nan nan nan nan nan nan nan nan nan nan 7.1 nan nan nan nan nan nan nan nan nan nan nan nan nan nan nan nan nan nan nan
nan nan nan nan nan nan nan nan nan nan nan 6.7 nan nan nan nan 6.0 8.3 8.0 6.4 3.3 nan nan nan nan nan nan nan nan nan nan nan nan nan nan nan nan nan
6.2 10.0 nan nan nan nan nan nan nan 5.0 6.1 6.1 6.5 7.6 10.0 5.0 8.0 7.7 7.2 3.9 4.9 2.9 3.0 3.2 nan nan nan nan nan nan nan nan nan nan nan nan nan nan
nan nan nan nan nan nan nan nan nan nan 4.0 6.3 6.6 7.2 7.9 6.7 7.1 8.0 10.0 7.2 7.6 3.0 3.7 3.9 3.3 3.2 3.1 nan nan nan nan nan nan nan nan nan nan nan
nan nan nan nan nan nan 4.4 5.3 4.3 nan nan nan 5.5 5.4 nan nan 6.8 7.6 7.8 6.7 4.0 3.6 3.3 5.9 3.2 3.5 3.4 3.3 nan nan nan nan nan nan nan nan nan nan
nan nan nan 4.4 nan nan 5.5 5.5 4.9 6.7 nan nan nan nan nan nan nan 5.1 5.0 5.9 5.0 3.9 3.3 4.7 3.6 3.5 3.1 2.7 2.5 nan nan nan nan nan nan nan nan nan
3.7 nan nan nan nan nan 6.4 6.5 6.6 5.6 4.6 3.9 4.0 6.7 nan nan nan 6.0 5.6 6.5 5.2 5.8 3.8 5.7 4.4 5.4 5.4 4.0 3.2 2.7 2.5 nan nan nan nan nan nan 2.5
4.1 3.9 3.5 nan nan nan nan 6.0 7.3 5.9 5.8 5.0 4.8 4.4 4.4 4.9 4.4 4.5 4.9 5.3 5.7 5.5 3.4 6.1 5.6 5.0 6.4 5.4 3.9 3.8 3.9 3.3 3.0 3.4 nan nan nan 2.7
4.6 4.1 4.5 nan nan nan 4.0 nan nan 4.4 4.7 5.2 5.4 5.4 5.2 4.8 4.6 4.6 5.1 4.5 4.1 5.8 5.4 6.7 6.5 6.3 6.2 5.5 5.2 4.2 4.0 4.0 5.4 3.9 3.1 nan nan nan
4.3 4.5 nan nan nan 3.0 nan nan 3.0 5.0 5.1 5.9 5.8 5.8 5.3 4.8 4.7 4.5 4.9 4.9 4.8 5.3 5.4 5.2 4.8 5.8 5.2 5.9 6.1 5.6 5.6 5.1 4.2 4.3 4.1 3.9 3.8 3.2
4.5 4.6 3.0 4.2 3.0 3.9 4.4 4.7 4.9 5.0 5.5 5.9 6.1 5.9 4.9 4.6 4.8 4.6 4.8 4.9 5.3 5.5 4.8 4.8 5.2 5.6 5.1 5.0 5.6 5.2 4.7 5.8 5.1 4.7 4.4 4.2 4.2 3.8
4.9 5.5 5.4 5.6 5.8 5.3 5.1 5.1 5.0 5.0 5.4 5.6 5.9 5.9 5.6 5.4 5.3 4.5 4.6 4.9 5.5 5.3 5.3 4.8 4.8 4.8 4.5 5.5 5.4 4.9 5.4 5.6 5.2 5.0 4.5 4.6 4.0 3.8
6.3 6.6 7.1 7.0 7.0 6.2 6.2 5.9 5.5 5.1 5.5 5.5 5.6 5.7 5.9 5.7 6.0 5.4 5.0 5.4 5.9 5.5 5.3 4.9 4.6 5.1 4.9 5.2 5.1 5.6 5.5 6.1 5.8 4.9 4.6 5.3 5.3 4.5
6.8 6.7 8.0 7.6 7.0 6.6 6.5 6.2 6.6 5.9 6.6 5.5 5.9 6.3 6.5 6.2 6.2 6.0 5.6 5.6 5.7 5.6 5.3 4.7 4.9 4.9 6.3 7.0 5.5 nan 6.0 5.6 5.3 5.2 4.8 5.4 6.0 5.7
6.5 6.7 7.4 7.1 6.9 6.7 6.6 6.9 6.7 6.5 6.8 6.4 6.8 7.2 7.4 7.7 7.0 6.8 6.3 7.2 6.3 5.6 5.4 4.9 5.1 5.0 6.0 6.5 5.9 5.9 nan 5.3 5.5 5.7 5.8 5.2 5.3 nan
6.5 6.7 6.4 6.7 6.7 6.6 7.0 7.4 7.7 7.8 7.8 7.9 7.3 7.4 6.9 7.0 7.0 6.4 6.6 5.4 4.9 5.5 6.2 5.9 5.5 3.1 6.0 5.7 5.8 6.0 5.9 nan 5.2 5.3 5.3 5.6 5.9 5.5
6.5 6.8 6.3 6.3 6.7 7.0 7.6 7.5 7.3 7.2 7.6 7.5 8.2 7.5 7.4 7.9 8.6 8.8 8.0 7.2 6.1 6.2 6.6 5.9 5.4 5.6 5.7 6.6 6.7 6.1 6.3 6.0 nan nan nan nan 6.7 6.9
7.0 6.7 6.4 6.6 6.4 6.6 6.8 7.5 7.2 7.0 7.7 7.9 8.0 8.0 7.1 8.8 8.6 7.9 7.5 6.8 6.4 6.5 6.5 6.4 5.8 5.5 5.8 6.1 6.5 6.4 6.7 6.0 5.7 5.8 6.2 nan nan nan